Time,TemperatureF,DewpointF,PressureIn,WindDirection,WindDirectionDegrees,WindSpeedMPH,WindSpeedGustMPH,Humidity,HourlyPrecipIn,Conditions,Clouds,dailyrainin,SolarRadiationWatts/m^2,SoftwareType,DateUTC
2013-08-12 00:00:00,83.3,75.0,30.10,ENE,65,0.0,-999.0,76,-99.99,,,0.00,0,weatherlink.com 1.10,2013-08-12 04:00:00,
2013-08-12 00:15:00,83.3,75.0,30.10,ENE,75,3.0,-999.0,76,-99.99,,,0.00,0,weatherlink.com 1.10,2013-08-12 04:15:00,
2013-08-12 00:30:00,83.4,75.0,30.10,East,96,1.0,-999.0,76,-99.99,,,0.00,0,weatherlink.com 1.10,2013-08-12 04:30:00,
2013-08-12 00:45:00,83.4,75.0,30.09,East,94,2.0,-999.0,76,-99.99,,,0.00,0,weatherlink.com 1.10,2013-08-12 04:45:00,
2013-08-12 01:00:00,83.4,75.0,30.09,ESE,105,0.0,-999.0,76,-99.99,,,0.00,0,weatherlink.com 1.10,2013-08-12 05:00:00,
2013-08-12 01:15:00,83.2,75.0,30.09,NE,46,4.0,-999.0,76,-99.99,,,0.00,0,weatherlink.com 1.10,2013-08-12 05:15:00,
2013-08-12 01:30:00,83.0,75.0,30.08,East,81,1.0,-999.0,76,-99.99,,,0.00,0,weatherlink.com 1.10,2013-08-12 05:30:00,
2013-08-12 01:45:00,82.9,75.0,30.08,East,82,0.0,-999.0,77,-99.99,,,0.00,0,weatherlink.com 1.10,2013-08-12 05:45:00,
2013-08-12 02:00:00,82.7,75.0,30.08,ESE,103,0.0,-999.0,77,-99.99,,,0.00,0,weatherlink.com 1.10,2013-08-12 06:00:00,
2013-08-12 02:15:00,82.5,74.0,30.08,NE,36,4.0,-999.0,76,-99.99,,,0.00,0,weatherlink.com 1.10,2013-08-12 06:15:00,
2013-08-12 02:30:00,82.5,75.0,30.07,East,80,0.0,-999.0,77,-99.99,,,0.00,0,weatherlink.com 1.10,2013-08-12 06:30:00,
2013-08-12 02:45:00,82.3,74.0,30.07,NE,56,0.0,-999.0,76,-99.99,,,0.00,0,weatherlink.com 1.10,2013-08-12 06:45:00,
2013-08-12 03:00:00,82.4,74.0,30.07,NNE,21,0.0,-999.0,76,-99.99,,,0.00,0,weatherlink.com 1.10,2013-08-12 07:00:00,
2013-08-12 03:15:00,82.2,74.0,30.07,NE,56,0.0,-999.0,76,-99.99,,,0.00,0,weatherlink.com 1.10,2013-08-12 07:15:00,
2013-08-12 03:30:00,82.2,74.0,30.06,NE,49,0.0,-999.0,76,-99.99,,,0.00,0,weatherlink.com 1.10,2013-08-12 07:30:00,
2013-08-12 03:45:00,82.0,74.0,30.06,ENE,60,0.0,-999.0,76,-99.99,,,0.00,0,weatherlink.com 1.10,2013-08-12 07:45:00,
2013-08-12 04:00:00,81.9,73.0,30.06,ENE,65,0.0,-999.0,75,-99.99,,,0.00,0,weatherlink.com 1.10,2013-08-12 08:00:00,
2013-08-12 04:16:00,81.8,74.0,30.06,ENE,69,0.0,-999.0,76,-99.99,,,0.00,0,weatherlink.com 1.10,2013-08-12 08:16:00,
2013-08-12 04:31:00,81.6,73.0,30.06,ENE,75,0.0,-999.0,76,-99.99,,,0.00,0,weatherlink.com 1.10,2013-08-12 08:31:00,
2013-08-12 04:46:00,81.4,73.0,30.05,ENE,70,0.0,-999.0,76,-99.99,,,0.00,0,weatherlink.com 1.10,2013-08-12 08:46:00,
2013-08-12 05:01:00,81.5,74.0,30.05,ENE,74,0.0,-999.0,77,-99.99,,,0.00,0,weatherlink.com 1.10,2013-08-12 09:01:00,
2013-08-12 05:16:00,81.3,73.0,30.05,ENE,69,0.0,-999.0,77,-99.99,,,0.00,0,weatherlink.com 1.10,2013-08-12 09:16:00,
2013-08-12 05:31:00,81.1,73.0,30.05,ENE,64,0.0,-999.0,77,-99.99,,,0.00,0,weatherlink.com 1.10,2013-08-12 09:31:00,
2013-08-12 05:46:00,81.0,73.0,30.05,ENE,63,4.0,-999.0,76,-99.99,,,0.00,0,weatherlink.com 1.10,2013-08-12 09:46:00,
2013-08-12 06:01:00,81.3,73.0,30.06,ENE,58,0.0,-999.0,76,-99.99,,,0.00,0,weatherlink.com 1.10,2013-08-12 10:01:00,
2013-08-12 06:16:00,81.1,73.0,30.06,ENE,61,0.0,-999.0,77,-99.99,,,0.00,0,weatherlink.com 1.10,2013-08-12 10:16:00,
2013-08-12 06:31:00,80.9,73.0,30.06,NE,54,2.0,-999.0,77,-99.99,,,0.00,0,weatherlink.com 1.10,2013-08-12 10:31:00,
2013-08-12 06:46:00,80.9,73.0,30.06,ENE,59,0.0,-999.0,77,-99.99,,,0.00,0,weatherlink.com 1.10,2013-08-12 10:46:00,
2013-08-12 07:01:00,80.9,73.0,30.06,ENE,61,2.0,-999.0,78,-99.99,,,0.00,9,weatherlink.com 1.10,2013-08-12 11:01:00,
2013-08-12 07:16:00,80.9,73.0,30.06,ENE,57,0.0,-999.0,77,-99.99,,,0.00,26,weatherlink.com 1.10,2013-08-12 11:16:00,
2013-08-12 07:31:00,81.3,74.0,30.06,ENE,65,0.0,-999.0,78,-99.99,,,0.00,58,weatherlink.com 1.10,2013-08-12 11:31:00,
2013-08-12 07:46:00,81.9,74.0,30.06,ENE,61,0.0,-999.0,76,-99.99,,,0.00,49,weatherlink.com 1.10,2013-08-12 11:46:00,
2013-08-12 08:01:00,82.3,74.0,30.07,ENE,63,0.0,-999.0,77,-99.99,,,0.00,163,weatherlink.com 1.10,2013-08-12 12:01:00,
2013-08-12 08:16:00,82.6,75.0,30.07,ENE,59,3.0,-999.0,78,-99.99,,,0.00,54,weatherlink.com 1.10,2013-08-12 12:16:00,
2013-08-12 08:31:00,82.7,76.0,30.07,ENE,60,3.0,-999.0,79,-99.99,,,0.00,125,weatherlink.com 1.10,2013-08-12 12:31:00,
2013-08-12 08:46:00,83.3,76.0,30.07,ENE,63,6.0,-999.0,79,-99.99,,,0.00,98,weatherlink.com 1.10,2013-08-12 12:46:00,
2013-08-12 09:01:00,84.1,76.0,30.07,NE,55,4.0,-999.0,77,-99.99,,,0.00,70,weatherlink.com 1.10,2013-08-12 13:01:00,
2013-08-12 09:16:00,84.7,76.0,30.07,ENE,63,6.0,-999.0,76,-99.99,,,0.00,446,weatherlink.com 1.10,2013-08-12 13:16:00,
2013-08-12 09:31:00,85.0,76.0,30.07,NE,45,8.0,-999.0,75,-99.99,,,0.00,483,weatherlink.com 1.10,2013-08-12 13:31:00,
2013-08-12 09:46:00,85.6,77.0,30.07,NE,38,7.0,-999.0,75,-99.99,,,0.00,503,weatherlink.com 1.10,2013-08-12 13:46:00,
2013-08-12 10:01:00,86.4,77.0,30.07,NE,43,4.0,-999.0,73,-99.99,,,0.00,570,weatherlink.com 1.10,2013-08-12 14:01:00,
2013-08-12 10:16:00,86.3,76.0,30.07,NE,41,3.0,-999.0,72,-99.99,,,0.00,638,weatherlink.com 1.10,2013-08-12 14:16:00,
2013-08-12 10:31:00,86.4,77.0,30.07,ENE,74,4.0,-999.0,73,-99.99,,,0.00,694,weatherlink.com 1.10,2013-08-12 14:31:00,
2013-08-12 10:46:00,86.5,77.0,30.07,NNE,33,5.0,-999.0,73,-99.99,,,0.00,722,weatherlink.com 1.10,2013-08-12 14:46:00,
2013-08-12 11:01:00,86.5,77.0,30.07,ENE,68,2.0,-999.0,74,-99.99,,,0.00,823,weatherlink.com 1.10,2013-08-12 15:01:00,
2013-08-12 11:16:00,87.2,77.0,30.08,East,96,0.0,-999.0,71,-99.99,,,0.00,846,weatherlink.com 1.10,2013-08-12 15:16:00,
2013-08-12 11:32:00,87.8,77.0,30.08,NE,49,2.0,-999.0,71,-99.99,,,0.00,810,weatherlink.com 1.10,2013-08-12 15:32:00,
2013-08-12 11:47:00,87.7,76.0,30.08,East,79,3.0,-999.0,69,-99.99,,,0.00,840,weatherlink.com 1.10,2013-08-12 15:47:00,
2013-08-12 12:02:00,88.1,77.0,30.07,ESE,114,6.0,-999.0,69,-99.99,,,0.00,937,weatherlink.com 1.10,2013-08-12 16:02:00,
2013-08-12 12:17:00,88.5,77.0,30.07,NE,36,10.0,-999.0,69,-99.99,,,0.00,912,weatherlink.com 1.10,2013-08-12 16:17:00,
2013-08-12 12:32:00,88.1,75.0,30.07,East,94,5.0,-999.0,66,-99.99,,,0.00,886,weatherlink.com 1.10,2013-08-12 16:32:00,
2013-08-12 12:47:00,88.5,76.0,30.06,ENE,57,8.0,-999.0,67,-99.99,,,0.00,896,weatherlink.com 1.10,2013-08-12 16:47:00,
2013-08-12 13:02:00,88.0,76.0,30.06,ENE,59,6.0,-999.0,67,-99.99,,,0.00,918,weatherlink.com 1.10,2013-08-12 17:02:00,
2013-08-12 13:17:00,89.0,75.0,30.06,ENE,70,7.0,-999.0,64,-99.99,,,0.00,904,weatherlink.com 1.10,2013-08-12 17:17:00,
2013-08-12 13:32:00,89.0,76.0,30.06,ENE,63,2.0,-999.0,65,-99.99,,,0.00,912,weatherlink.com 1.10,2013-08-12 17:32:00,
2013-08-12 13:47:00,88.6,75.0,30.05,ENE,61,0.0,-999.0,65,-99.99,,,0.00,909,weatherlink.com 1.10,2013-08-12 17:47:00,
2013-08-12 14:02:00,89.2,75.0,30.05,East,91,7.0,-999.0,64,-99.99,,,0.00,898,weatherlink.com 1.10,2013-08-12 18:02:00,
2013-08-12 14:17:00,88.9,76.0,30.05,ENE,68,3.0,-999.0,66,-99.99,,,0.00,891,weatherlink.com 1.10,2013-08-12 18:17:00,
2013-08-12 14:32:00,88.8,75.0,30.04,ENE,65,5.0,-999.0,64,-99.99,,,0.00,893,weatherlink.com 1.10,2013-08-12 18:32:00,
2013-08-12 14:47:00,88.1,76.0,30.03,ENE,68,7.0,-999.0,67,-99.99,,,0.00,879,weatherlink.com 1.10,2013-08-12 18:47:00,
2013-08-12 15:02:00,89.1,75.0,30.04,ENE,63,5.0,-999.0,64,-99.99,,,0.00,851,weatherlink.com 1.10,2013-08-12 19:02:00,
2013-08-12 15:17:00,88.9,76.0,30.03,East,83,6.0,-999.0,65,-99.99,,,0.00,802,weatherlink.com 1.10,2013-08-12 19:17:00,
2013-08-12 15:32:00,89.3,77.0,30.03,ENE,59,4.0,-999.0,66,-99.99,,,0.00,809,weatherlink.com 1.10,2013-08-12 19:32:00,
2013-08-12 15:47:00,88.4,76.0,30.03,East,91,4.0,-999.0,66,-99.99,,,0.00,791,weatherlink.com 1.10,2013-08-12 19:47:00,
2013-08-12 16:02:00,88.7,76.0,30.03,East,82,2.0,-999.0,66,-99.99,,,0.00,770,weatherlink.com 1.10,2013-08-12 20:02:00,
2013-08-12 16:17:00,88.8,76.0,30.02,ENE,59,6.0,-999.0,65,-99.99,,,0.00,705,weatherlink.com 1.10,2013-08-12 20:17:00,
2013-08-12 16:32:00,88.8,76.0,30.02,ESE,111,7.0,-999.0,67,-99.99,,,0.00,689,weatherlink.com 1.10,2013-08-12 20:32:00,
2013-08-12 16:47:00,89.3,77.0,30.02,ESE,109,8.0,-999.0,66,-99.99,,,0.00,705,weatherlink.com 1.10,2013-08-12 20:47:00,
2013-08-12 17:02:00,88.7,78.0,30.02,NE,55,8.0,-999.0,70,-99.99,,,0.00,397,weatherlink.com 1.10,2013-08-12 21:02:00,
2013-08-12 17:17:00,87.3,77.0,30.01,NE,36,3.0,-999.0,72,-99.99,,,0.00,306,weatherlink.com 1.10,2013-08-12 21:17:00,
2013-08-12 17:32:00,86.8,75.0,30.01,ENE,78,5.0,-999.0,68,-99.99,,,0.00,367,weatherlink.com 1.10,2013-08-12 21:32:00,
2013-08-12 17:47:00,87.6,76.0,30.02,ENE,76,7.0,-999.0,69,-99.99,,,0.00,431,weatherlink.com 1.10,2013-08-12 21:47:00,
2013-08-12 18:02:00,86.8,76.0,30.02,East,84,6.0,-999.0,71,-99.99,,,0.00,323,weatherlink.com 1.10,2013-08-12 22:02:00,
2013-08-12 18:17:00,86.6,77.0,30.02,ENE,60,2.0,-999.0,73,-99.99,,,0.00,176,weatherlink.com 1.10,2013-08-12 22:17:00,
2013-08-12 18:32:00,86.1,76.0,30.01,East,94,0.0,-999.0,72,-99.99,,,0.00,276,weatherlink.com 1.10,2013-08-12 22:32:00,
2013-08-12 18:47:00,86.4,76.0,30.02,ENE,65,4.0,-999.0,72,-99.99,,,0.00,241,weatherlink.com 1.10,2013-08-12 22:47:00,
2013-08-12 19:02:00,86.3,76.0,30.01,ESE,104,6.0,-999.0,72,-99.99,,,0.00,111,weatherlink.com 1.10,2013-08-12 23:02:00,
2013-08-12 19:17:00,85.6,76.0,30.01,ENE,67,0.0,-999.0,74,-99.99,,,0.00,40,weatherlink.com 1.10,2013-08-12 23:17:00,
2013-08-12 19:32:00,85.0,76.0,30.02,ENE,66,10.0,-999.0,75,-99.99,,,0.00,25,weatherlink.com 1.10,2013-08-12 23:32:00,
2013-08-12 19:47:00,84.6,76.0,30.01,NE,51,5.0,-999.0,75,-99.99,,,0.00,30,weatherlink.com 1.10,2013-08-12 23:47:00,
2013-08-12 20:02:00,84.3,76.0,30.01,NE,55,0.0,-999.0,76,-99.99,,,0.00,0,weatherlink.com 1.10,2013-08-13 00:02:00,
2013-08-12 20:17:00,84.1,76.0,30.01,NE,54,4.0,-999.0,76,-99.99,,,0.00,0,weatherlink.com 1.10,2013-08-13 00:17:00,
2013-08-12 20:32:00,83.7,75.0,30.02,East,90,5.0,-999.0,76,-99.99,,,0.00,0,weatherlink.com 1.10,2013-08-13 00:32:00,
2013-08-12 20:47:00,83.6,76.0,30.02,ENE,67,5.0,-999.0,77,-99.99,,,0.00,0,weatherlink.com 1.10,2013-08-13 00:47:00,
2013-08-12 21:02:00,83.5,76.0,30.02,ENE,71,0.0,-999.0,78,-99.99,,,0.00,0,weatherlink.com 1.10,2013-08-13 01:02:00,
2013-08-12 21:17:00,83.4,76.0,30.02,ENE,58,0.0,-999.0,78,-99.99,,,0.00,0,weatherlink.com 1.10,2013-08-13 01:17:00,
2013-08-12 21:32:00,83.3,76.0,30.03,East,84,0.0,-999.0,78,-99.99,,,0.00,0,weatherlink.com 1.10,2013-08-13 01:32:00,
2013-08-12 21:47:00,83.5,76.0,30.03,ENE,63,0.0,-999.0,79,-99.99,,,0.00,0,weatherlink.com 1.10,2013-08-13 01:47:00,
2013-08-12 22:02:00,83.2,77.0,30.03,ENE,69,0.0,-999.0,81,-99.99,,,0.00,0,weatherlink.com 1.10,2013-08-13 02:02:00,
2013-08-12 22:17:00,82.9,77.0,30.04,East,85,2.0,-999.0,81,-99.99,,,0.00,0,weatherlink.com 1.10,2013-08-13 02:17:00,
2013-08-12 22:32:00,82.8,77.0,30.04,ESE,104,2.0,-999.0,82,-99.99,,,0.00,0,weatherlink.com 1.10,2013-08-13 02:32:00,
2013-08-12 22:47:00,82.7,77.0,30.04,ENE,63,1.0,-999.0,82,-99.99,,,0.00,0,weatherlink.com 1.10,2013-08-13 02:47:00,
2013-08-12 23:02:00,82.7,77.0,30.04,ENE,77,0.0,-999.0,82,-99.99,,,0.00,0,weatherlink.com 1.10,2013-08-13 03:02:00,
2013-08-12 23:17:00,82.7,77.0,30.05,ENE,69,0.0,-999.0,82,-99.99,,,0.00,0,weatherlink.com 1.10,2013-08-13 03:17:00,
2013-08-12 23:32:00,82.9,77.0,30.04,East,89,0.0,-999.0,82,-99.99,,,0.00,0,weatherlink.com 1.10,2013-08-13 03:32:00,
2013-08-12 23:47:00,82.9,77.0,30.04,ENE,62,2.0,-999.0,81,-99.99,,,0.00,0,weatherlink.com 1.10,2013-08-13 03:47:00,